Location: *
(46.1866°S, 178.5290°W)
Time: 05:04:31
(UTC+00:00)

CZ-4B R/B - Pass Details

Date: 30 September 2021
Orbit: 809 x 881 km, 99.1° (Epoch: 17 October)

Event Time Altitude Azimuth Distance (km) Brightness Sun altitude
Rises 06:27:37 0° 160° (SSE) 3,371 6.2 -5.4°
Reaches altitude 10° 06:30:06 10° 153° (SSE) 2,432 5.4 -5.8°
Maximum altitude 06:35:13 44° 81° (E) 1,128 3.5 -6.7°
Drops below altitude 10° 06:40:19 10° 9° (N) 2,420 5.4 -7.5°
Sets 06:42:46 0° 2° (N) 3,353 6.2 -8.0°
